McCordsville, IN

11:42 AM EDT on July 23, 2016 (GMT -0400)
Mount Comfort

Weather History for KMQJ - January, 2014

Change the Weather History Date:

Wednesday, January 22, 2014

  Actual Average (KEYE) Record (KEYE)
Temperature  
Mean Temperature 6 °F 28 °F  
Max Temperature 17 °F 35 °F 59 °F (1999)
Min Temperature -5 °F 21 °F -4 °F (2011)
Degree Days  
Heating Degree Days 59 37  
Month to date heating degree days 814  
Since 1 July heating degree days 2870  
Cooling Degree Days 0 0  
Month to date cooling degree days 0  
Year to date cooling degree days 0  
Moisture  
Dew Point 2 °F    
Average Humidity 84    
Maximum Humidity 93    
Minimum Humidity 67    
Precipitation  
Precipitation 0.00 in 0.03 in 1.71 in (1999)
Month to date precipitation 1.88  
Year to date precipitation 1.88  
Sea Level Pressure  
Sea Level Pressure 30.06 in    
Wind  
Wind Speed 5 mph (SSW)    
Max Wind Speed 24 mph    
Max Gust Speed 38 mph    
Visibility 7 miles    
Events      
T = Trace of Precipitation, MM = Missing Value Source: NWS Daily Summary

Daily Weather History Graph

Daily Weather History Graph

Search for Another Location

Airport or City:

Trip Planner

Search our weather history database for the weather conditions in past years. The results will help you decide how hot, cold, wet, or windy it might be!

Date:

Astronomy

Jan. 22, 2014 Rise Set
Actual Time 7:59 AM EST 5:51 PM EST
Civil Twilight 7:30 AM EST 6:20 PM EST
Nautical Twilight 6:57 AM EST 6:53 PM EST
Astronomical Twilight 6:25 AM EST 7:25 PM EST
Moon No Moon Rise 11:00 AM EST (1/22)
Length of Visible Light 10h 50m
Length of Day
9h 51m
Waning Gibbous, 65% of the Moon is Illuminated
Jan 22
Waning Gibbous
Jan 24
Last Quarter
Jan 30
New
Feb 6
First Quarter
Feb 14
Full

Hourly Weather History & Observations

Time (EST) Temp. Windchill Dew Point Humidity Pressure Visibility Wind Dir Wind Speed Gust Speed Precip Events Conditions
12:14 AM -2.2 °F - -5.8 °F 85% 30.19 in 10.0 mi Calm Calm - N/A   Clear
12:34 AM -2.2 °F - -5.8 °F 85% 30.19 in 10.0 mi Calm Calm - N/A   Clear
12:55 AM -2.2 °F - -4.0 °F 92% 30.19 in 10.0 mi Calm Calm - N/A   Clear
1:14 AM -2.2 °F - -4.0 °F 92% 30.19 in 10.0 mi Calm Calm - N/A   Clear
1:34 AM -2.2 °F - -5.8 °F 85% 30.19 in 7.0 mi Calm Calm - N/A   Clear
1:55 AM -2.2 °F - -4.0 °F 92% 30.19 in 10.0 mi Calm Calm - N/A   Clear
2:14 AM -2.2 °F - -4.0 °F 92% 30.19 in 10.0 mi Calm Calm - N/A   Clear
2:34 AM -2.2 °F -10.4 °F -5.8 °F 85% 30.19 in 10.0 mi WNW 3.5 mph - N/A   Clear
2:55 AM -2.2 °F - -4.0 °F 92% 30.18 in 2.0 mi Calm Calm - N/A   Clear
3:14 AM -2.2 °F -10.4 °F -5.8 °F 85% 30.17 in 7.0 mi WSW 3.5 mph - N/A   Clear
3:35 AM -0.4 °F -8.3 °F -4.0 °F 85% 30.16 in 10.0 mi WSW 3.5 mph - N/A   Clear
3:54 AM -5.8 °F - -9.4 °F 84% 30.16 in 10.0 mi Calm Calm - N/A   Clear
4:14 AM -4.0 °F - -7.6 °F 85% 30.15 in 10.0 mi Calm Calm - N/A   Clear
4:35 AM -4.0 °F - -7.6 °F 85% 30.13 in 10.0 mi Calm Calm - N/A   Clear
4:54 AM -4.0 °F - -5.8 °F 92% 30.13 in 10.0 mi Calm Calm - N/A   Clear
5:14 AM -4.0 °F - -7.6 °F 85% 30.12 in 10.0 mi Calm Calm - N/A   Clear
5:35 AM -4.0 °F - -7.6 °F 85% 30.11 in 10.0 mi Calm Calm - N/A   Clear
5:54 AM -5.8 °F - -9.4 °F 84% 30.11 in 10.0 mi Calm Calm - N/A   Clear
6:14 AM -5.8 °F -14.5 °F -9.4 °F 84% 30.11 in 10.0 mi SSE 3.5 mph - N/A   Clear
6:35 AM -5.8 °F - -9.4 °F 84% 30.12 in 10.0 mi Calm Calm - N/A   Clear
6:54 AM -4.0 °F -12.4 °F -7.6 °F 85% 30.11 in 10.0 mi SSE 3.5 mph - N/A   Clear
7:14 AM -4.0 °F -12.4 °F -7.6 °F 85% 30.11 in 10.0 mi SSE 3.5 mph - N/A   Clear
7:35 AM -0.4 °F -8.3 °F -4.0 °F 85% 30.11 in 10.0 mi SSE 3.5 mph - N/A   Clear
7:54 AM 1.4 °F -6.2 °F -2.2 °F 85% 30.10 in 10.0 mi South 3.5 mph - N/A   Clear
8:14 AM 1.4 °F -9.9 °F -0.4 °F 92% 30.10 in 10.0 mi South 5.8 mph - N/A   Clear
8:35 AM 1.4 °F -9.9 °F -0.4 °F 92% 30.10 in 10.0 mi South 5.8 mph - N/A   Clear
8:54 AM 3.2 °F -6.2 °F -0.4 °F 85% 30.09 in 10.0 mi South 4.6 mph - N/A   Clear
9:14 AM 3.2 °F -9.1 °F 1.4 °F 92% 30.08 in 10.0 mi SSE 6.9 mph - N/A   Clear
9:35 AM 5.0 °F -4.1 °F 1.4 °F 85% 30.08 in 10.0 mi South 4.6 mph - N/A   Scattered Clouds
9:54 AM 5.0 °F -6.9 °F 3.2 °F 92% 30.08 in 10.0 mi South 6.9 mph - N/A   Scattered Clouds
10:14 AM 6.8 °F -5.9 °F 3.2 °F 85% 30.09 in 10.0 mi South 8.1 mph - N/A   Scattered Clouds
10:35 AM 6.8 °F -7.8 °F 3.2 °F 85% 30.07 in 10.0 mi South 10.4 mph - N/A   Scattered Clouds
10:54 AM 6.8 °F -5.9 °F 5.0 °F 92% 30.07 in 10.0 mi South 8.1 mph - N/A   Clear
11:14 AM 6.8 °F -7.8 °F 5.0 °F 92% 30.08 in 10.0 mi South 10.4 mph 17.3 mph N/A   Clear
11:35 AM 8.6 °F -4.7 °F 5.0 °F 85% 30.07 in 10.0 mi South 9.2 mph - N/A   Clear
11:54 AM 8.6 °F -7.0 °F 5.0 °F 85% 30.06 in 10.0 mi South 12.7 mph - N/A   Scattered Clouds
12:15 PM 8.6 °F -6.3 °F 5.0 °F 85% 30.05 in 10.0 mi South 11.5 mph - N/A   Clear
12:35 PM 10.4 °F -4.1 °F 5.0 °F 79% 30.03 in 10.0 mi South 11.5 mph 17.3 mph N/A   Clear
12:54 PM 10.4 °F -5.4 °F 5.0 °F 79% 30.01 in 10.0 mi South 13.8 mph 19.6 mph N/A   Clear
1:15 PM 10.4 °F -4.1 °F 3.2 °F 73% 30.00 in 10.0 mi SSW 11.5 mph - N/A   Clear
1:35 PM 10.4 °F -4.1 °F 3.2 °F 73% 30.00 in 10.0 mi SSW 11.5 mph - N/A   Scattered Clouds
1:54 PM 12.2 °F -1.0 °F 3.2 °F 67% 29.99 in 7.0 mi SSW 10.4 mph - N/A   Mostly Cloudy
2:15 PM 12.2 °F -1.8 °F 5.0 °F 73% 29.97 in 5.0 mi South 11.5 mph - N/A   Overcast
2:34 PM 12.2 °F -3.1 °F 5.0 °F 73% 29.97 in 3.0 mi SSW 13.8 mph - N/A   Overcast
2:54 PM 12.2 °F -1.0 °F 6.8 °F 79% 29.97 in 4.0 mi SSW 10.4 mph 17.3 mph N/A   Overcast
3:15 PM 14.0 °F 1.2 °F 6.8 °F 73% 29.96 in 7.0 mi SSW 10.4 mph - N/A   Mostly Cloudy
3:34 PM 14.0 °F 1.2 °F 6.8 °F 73% 29.96 in 4.0 mi SW 10.4 mph - N/A   Overcast
3:54 PM 14.0 °F 1.2 °F 6.8 °F 73% 29.96 in 2.5 mi SSW 10.4 mph - N/A   Overcast
4:15 PM 14.0 °F 0.5 °F 8.6 °F 79% 29.97 in 3.0 mi SSW 11.5 mph - N/A   Overcast
4:34 PM 14.0 °F 1.2 °F 8.6 °F 79% 29.96 in 2.5 mi SSW 10.4 mph - N/A   Overcast
4:54 PM 14.0 °F 1.2 °F 10.4 °F 86% 29.97 in 2.0 mi SSW 10.4 mph - N/A   Overcast
5:15 PM 14.0 °F 2.9 °F 10.4 °F 86% 29.98 in 1.5 mi SSW 8.1 mph - N/A   Overcast
5:34 PM 14.0 °F 2.9 °F 10.4 °F 86% 29.99 in 1.2 mi SSW 8.1 mph - N/A   Overcast
5:54 PM 14.0 °F 2.9 °F 12.2 °F 93% 29.99 in 1.8 mi SSW 8.1 mph - N/A   Overcast
6:15 PM 14.0 °F 2.9 °F 12.2 °F 93% 29.99 in 2.0 mi SSW 8.1 mph - N/A   Overcast
6:34 PM 14.0 °F 2.9 °F 12.2 °F 93% 29.99 in 3.0 mi South 8.1 mph - N/A   Overcast
6:54 PM 14.0 °F 3.9 °F 12.2 °F 93% 29.98 in 5.0 mi SSW 6.9 mph - N/A   Overcast
7:15 PM 14.0 °F 3.9 °F 12.2 °F 93% 29.99 in 7.0 mi SSW 6.9 mph - N/A   Mostly Cloudy
7:34 PM 15.8 °F 5.1 °F 12.2 °F 86% 29.99 in 3.0 mi SSW 8.1 mph - N/A   Overcast
7:54 PM 15.8 °F 4.2 °F 14.0 °F 93% 29.99 in 2.0 mi SW 9.2 mph - N/A   Overcast
8:15 PM 15.8 °F 2.1 °F 14.0 °F 93% 29.99 in 2.5 mi SW 12.7 mph - N/A   Overcast
8:34 PM 15.8 °F 2.7 °F 14.0 °F 93% 29.99 in 2.5 mi SW 11.5 mph - N/A   Overcast
8:54 PM 15.8 °F 2.7 °F 14.0 °F 93% 29.99 in 2.5 mi SW 11.5 mph 18.4 mph N/A   Overcast
9:15 PM 17.6 °F 5.0 °F 14.0 °F 86% 29.99 in 4.0 mi WSW 11.5 mph - N/A   Overcast
9:34 PM 14.0 °F -5.1 °F 12.2 °F 93% 30.03 in 0.8 mi NW 24.2 mph 35.7 mph N/A   Overcast
9:55 PM 12.2 °F -6.7 °F 5.0 °F 73% 30.04 in 1.2 mi WNW 21.9 mph 38.0 mph N/A   Mostly Cloudy
10:14 PM 10.4 °F -9.9 °F 3.2 °F 73% 30.04 in 4.0 mi WNW 24.2 mph 27.6 mph N/A   Clear
10:34 PM 10.4 °F -7.7 °F 3.2 °F 73% 30.06 in 7.0 mi WNW 18.4 mph 24.2 mph N/A   Clear
10:55 PM 10.4 °F -6.0 °F 3.2 °F 73% 30.06 in 7.0 mi WNW 15.0 mph 25.3 mph N/A   Clear
11:14 PM 8.6 °F -8.9 °F 1.4 °F 73% 30.07 in 10.0 mi WNW 16.1 mph 20.7 mph N/A   Clear
11:34 PM 8.6 °F -10.5 °F 1.4 °F 73% 30.07 in 10.0 mi WNW 19.6 mph 25.3 mph N/A   Clear
11:55 PM 8.6 °F -8.9 °F 1.4 °F 73% 30.09 in 10.0 mi WNW 16.1 mph 24.2 mph N/A   Clear